Wind_Speed
16 17 17 17 16 16 16 15 14 13 14 15 16 15 14 12 11 10 9 9 8 9 9 10 12 13 14 15 16 17 18 19 20 20 20 20 20 20 19 19 19 19 19 19
17 17 18 17 16 17 16 15 15 14 14 16 16 15 14 13 12 11 10 10 9 9 10 11 12 13 15 16 16 17 18 19 20 20 20 20 20 20 20 20 19 19 19 19
17 17 17 15 15 17 16 15 15 14 15 17 16 16 15 14 13 12 12 11 10 10 11 11 12 14 15 16 17 18 18 19 20 20 20 21 21 21 21 20 20 19 19 18
17 17 16 13 16 16 16 15 15 15 16 16 17 16 15 15 14 14 13 12 12 12 12 12 13 14 15 16 17 18 18 19 20 20 21 21 21 21 21 21 20 19 19 18
17 17 14 14 15 16 15 14 15 16 16 17 18 17 17 17 16 15 14 14 13 13 13 13 14 15 16 17 17 18 19 20 20 21 22 21 21 21 21 21 20 19 19 18
18 17 14 13 16 16 16 14 16 17 17 18 18 18 18 18 17 17 16 16 15 15 15 15 15 16 17 17 18 18 19 20 21 22 22 22 22 22 22 21 21 20 19 19
20 19 16 16 17 18 17 16 18 19 19 19 19 20 20 19 19 18 18 17 17 16 16 16 17 17 18 18 19 19 20 21 22 23 23 23 23 23 22 22 22 21 20 19
22 21 18 19 19 19 19 20 20 21 21 21 21 21 21 20 20 20 19 19 19 18 18 18 18 18 19 19 20 20 21 22 23 24 24 24 23 23 23 23 22 21 21 20
25 23 22 22 22 22 22 22 22 23 23 23 23 23 22 22 22 22 21 21 20 20 20 20 20 20 20 20 21 21 22 23 24 24 25 25 24 24 24 23 23 22 21 21
29 26 26 26 25 25 25 25 25 25 25 25 25 24 24 24 24 24 23 23 23 22 22 22 21 21 21 21 22 23 23 24 25 25 26 26 25 25 25 24 23 23 22 22
33 30 30 29 29 29 29 28 28 28 27 27 27 26 26 26 26 26 25 25 24 24 24 23 23 23 23 23 23 24 25 26 26 27 27 27 26 26 26 25 24 24 23 23
37 35 36 34 33 33 33 31 31 30 30 29 29 29 29 29 28 27 27 27 26 26 25 25 24 24 24 25 25 26 26 27 28 28 28 28 28 27 26 26 25 25 25 25
41 40 40 38 36 36 36 35 35 34 33 32 31 31 31 30 30 29 29 28 28 27 27 26 26 26 26 26 27 27 28 28 29 29 30 30 30 29 28 28 27 27 26 26
45 45 44 42 41 40 40 39 38 37 35 34 33 33 33 32 32 31 30 30 30 29 29 28 28 28 28 28 28 29 29 30 30 31 31 31 31 31 31 30 29 29 28 28
47 48 47 45 44 44 43 42 41 39 38 37 36 35 35 34 34 33 33 32 31 31 31 30 30 30 30 30 30 31 31 31 32 32 32 33 33 33 32 32 31 31 31 30
50 50 50 49 47 46 46 45 43 42 40 40 39 38 38 37 37 36 35 34 34 33 33 33 32 32 32 32 33 33 33 33 34 34 34 34 34 34 34 33 33 33 33 33
52 51 51 51 49 48 47 46 45 44 43 42 42 41 41 41 40 39 38 37 37 36 36 35 35 35 35 35 35 35 35 35 36 36 36 36 36 36 35 35 35 35 34 34
52 52 52 51 50 50 49 48 48 47 46 45 45 44 44 43 43 42 42 41 40 39 39 38 38 38 37 37 37 37 37 38 38 38 38 38 38 38 37 37 36 36 36 36
49 50 50 50 50 50 50 50 49 48 48 47 46 46 46 46 46 45 44 43 43 42 42 41 41 40 40 40 40 40 40 40 40 40 41 41 40 39 39 38 38 37 37 38
46 46 47 48 49 49 49 50 50 50 49 49 48 48 48 47 47 47 46 46 46 45 45 44 43 43 43 42 42 42 42 42 43 43 42 42 41 40 40 39 39 39 39 39
44 44 45 46 46 47 48 48 49 50 50 49 49 49 49 50 49 49 48 48 47 47 47 46 46 45 45 45 44 44 44 44 44 44 43 43 42 41 41 41 40 40 40 40
44 45 45 46 46 46 47 47 48 49 50 49 50 50 51 50 50 50 50 50 49 49 48 48 47 47 46 46 46 45 45 45 45 44 44 43 43 42 42 42 41 41 41 41
44 44 45 46 46 46 46 47 48 49 49 49 49 50 51 51 51 50 50 50 50 50 49 49 48 48 47 47 46 46 46 45 45 44 44 43 43 43 42 42 42 41 41 42
43 44 44 45 46 46 46 46 47 48 50 51 51 51 51 52 52 51 51 50 49 49 49 49 49 48 48 47 47 46 46 45 45 44 44 43 43 43 42 42 41 41 42 42
42 42 43 44 45 46 46 46 46 47 48 49 50 51 51 51 51 51 50 50 50 49 49 49 48 48 47 46 46 45 45 45 45 44 43 43 42 42 42 42 42 42 42 42
41 41 40 40 42 43 45 45 45 45 46 47 47 48 49 50 50 50 50 49 49 48 48 48 48 47 46 46 45 45 45 44 43 42 42 42 42 42 42 41 41 42 42 43
40 40 40 39 40 41 42 43 43 43 43 44 45 46 46 47 48 48 48 48 48 47 47 47 47 46 45 45 44 44 43 43 42 42 42 42 41 41 41 41 41 42 42 42
Wind_Direction
258 260 260 259 259 259 259 256 249 236 229 224 223 223 228 233 240 252 265 278 292 305 317 327 335 339 341 344 346 348 348 349 349 350 351 352 351 350 350 350 350 351 352 352
262 262 261 258 257 259 255 250 244 235 227 226 224 226 230 235 243 253 263 274 285 298 310 320 328 334 337 340 341 343 345 346 347 348 349 350 350 349 348 348 348 348 349 349
268 265 262 257 255 256 253 246 241 233 228 228 228 231 234 238 245 253 261 270 280 292 303 313 321 328 332 335 338 340 342 343 344 345 345 346 347 347 346 345 344 345 346 347
269 265 263 258 254 255 252 247 242 236 233 232 233 236 238 242 247 253 259 268 277 287 296 305 313 320 326 330 333 336 338 339 341 341 342 342 343 344 344 344 343 343 343 344
271 267 263 261 258 254 249 244 243 239 238 237 238 241 243 245 248 254 260 267 275 283 290 299 306 312 319 324 327 330 333 335 337 338 339 339 340 341 341 340 340 340 340 341
270 269 265 260 258 255 251 246 244 243 241 241 242 245 246 248 252 256 261 267 273 279 285 292 299 305 311 317 321 325 329 332 334 334 335 335 336 336 336 336 335 336 335 335
267 267 264 261 258 256 254 246 243 244 245 245 247 249 250 253 256 259 262 266 271 276 282 288 294 300 305 310 315 320 324 327 330 332 333 332 332 331 332 332 331 331 331 330
265 265 261 257 255 255 252 248 246 246 247 248 250 252 254 256 258 259 262 266 270 274 279 284 289 294 300 305 310 315 319 323 326 328 329 329 329 328 328 328 327 326 326 325
261 262 260 256 254 253 252 250 249 249 249 250 252 253 254 256 258 260 262 265 269 273 277 281 285 289 294 300 305 310 314 318 321 324 326 326 326 325 324 324 324 323 322 321
259 257 257 256 254 252 251 250 250 250 251 252 253 253 254 255 257 260 262 265 268 271 274 277 281 285 290 295 301 306 310 314 317 320 322 323 323 322 321 320 320 319 318 318
258 256 254 253 253 252 250 250 250 250 251 252 253 254 255 256 257 259 262 264 266 269 271 274 278 282 287 292 298 302 306 310 313 315 318 319 319 319 319 318 316 315 314 314
257 255 253 251 250 250 250 250 250 250 251 252 253 254 255 256 257 259 260 262 264 266 269 272 276 280 285 290 295 299 303 306 309 311 313 315 316 315 315 314 313 311 311 310
256 254 253 252 250 250 250 250 250 251 251 252 252 254 255 256 257 257 258 260 262 264 267 271 274 279 283 288 292 296 300 303 305 308 309 311 312 312 311 310 310 309 308 307
256 255 253 252 251 249 249 249 249 250 251 252 252 253 255 255 256 257 258 260 262 264 267 270 274 278 282 286 290 294 297 301 303 305 307 308 309 309 308 308 307 307 306 306
255 255 254 252 251 250 250 250 249 249 250 251 252 253 254 255 256 257 258 260 262 264 267 270 273 277 280 284 288 292 295 298 300 302 304 305 306 306 306 305 304 304 304 304
255 255 254 253 252 251 250 250 250 250 250 250 251 252 253 254 255 257 258 260 262 264 267 270 273 276 279 283 286 290 293 296 298 300 301 302 303 303 303 302 301 301 302 302
255 254 254 253 252 251 250 249 249 249 249 249 250 251 252 254 255 257 258 260 262 264 267 270 272 275 278 281 284 287 290 293 296 297 299 300 300 300 300 299 299 299 299 299
256 254 253 252 252 251 250 250 249 249 249 249 250 250 251 253 255 257 258 260 262 265 267 269 271 274 277 280 283 286 288 291 293 295 297 298 298 298 297 297 298 298 297 296
257 255 254 253 251 250 250 249 249 249 249 249 249 250 251 252 253 256 258 260 262 264 266 268 271 274 276 279 281 284 286 289 291 293 294 296 296 296 296 296 296 296 296 295
255 254 253 252 251 250 249 249 248 248 248 249 249 249 250 252 253 255 257 259 261 263 266 268 270 273 275 278 280 282 285 287 289 291 293 294 294 294 294 294 294 295 295 294
252 251 250 249 249 249 248 248 247 247 247 248 248 249 251 252 253 254 256 258 260 263 265 267 270 272 275 277 279 281 283 286 287 289 291 292 292 293 293 293 293 294 294 294
251 250 250 249 248 248 248 248 247 247 247 247 248 249 250 252 253 254 256 257 259 262 264 267 269 272 274 276 278 280 282 284 286 287 289 290 291 291 292 293 293 293 293 293
253 252 250 249 248 247 246 247 248 248 248 248 248 249 250 251 253 254 256 257 260 262 264 266 268 270 272 274 277 279 281 282 284 286 287 289 289 290 291 292 292 292 292 293
254 254 253 252 251 249 247 246 247 248 249 249 250 250 251 252 253 254 256 257 259 261 263 265 267 269 271 273 275 277 279 281 282 284 286 287 288 289 290 291 291 291 292 293
256 255 254 253 252 250 249 248 247 247 248 249 250 251 252 253 253 254 256 258 259 260 262 264 265 267 269 272 274 275 277 279 281 283 285 286 287 288 289 290 290 291 292 293
259 257 256 255 254 253 252 251 250 249 249 249 249 251 252 253 254 255 256 257 258 259 261 263 265 267 269 271 273 275 277 279 281 282 284 285 286 287 288 289 290 291 292 294
262 260 259 258 256 254 253 252 251 250 249 248 249 249 251 252 253 255 256 257 258 259 261 263 264 266 268 270 272 274 275 277 279 281 283 284 286 286 287 288 290 291 293 295
Height
5811 5811 5811 5812 5812 5812 5813 5814 5815 5816 5817 5819 5819 5820 5822 5823 5824 5825 5825 5825 5824 5823 5822 5821 5819 5817 5815 5813 5810 5807 5804 5801 5798 5795 5791 5788 5784 5780 5777 5773 5770 5766 5762 5758
5807 5807 5807 5808 5808 5808 5809 5810 5811 5813 5815 5815 5816 5817 5819 5820 5821 5821 5822 5822 5821 5820 5819 5818 5817 5815 5813 5811 5808 5805 5803 5799 5796 5793 5790 5786 5782 5779 5775 5772 5768 5765 5761 5757
5803 5803 5803 5804 5805 5804 5805 5806 5807 5809 5811 5811 5813 5814 5815 5816 5817 5818 5818 5818 5818 5817 5816 5815 5814 5812 5810 5808 5806 5803 5800 5797 5794 5791 5788 5784 5780 5777 5773 5770 5766 5762 5759 5755
5799 5799 5799 5803 5800 5800 5801 5803 5804 5806 5807 5808 5809 5810 5812 5813 5814 5814 5815 5815 5814 5814 5813 5812 5811 5809 5808 5805 5803 5801 5798 5795 5792 5789 5785 5782 5778 5774 5771 5767 5764 5760 5757 5753
5795 5794 5796 5798 5797 5796 5797 5799 5800 5802 5803 5804 5805 5807 5808 5809 5810 5810 5811 5811 5810 5810 5809 5808 5807 5806 5804 5802 5800 5798 5795 5792 5789 5786 5782 5779 5775 5772 5768 5765 5761 5758 5755 5751
5791 5790 5792 5794 5792 5792 5794 5796 5797 5797 5798 5800 5801 5803 5804 5804 5805 5806 5806 5806 5806 5805 5805 5804 5803 5802 5801 5799 5797 5794 5792 5789 5786 5783 5779 5776 5772 5769 5765 5762 5759 5755 5752 5749
5786 5785 5787 5789 5788 5788 5791 5792 5791 5792 5793 5795 5796 5798 5799 5800 5800 5801 5801 5801 5801 5800 5800 5799 5799 5798 5796 5794 5793 5790 5788 5785 5782 5779 5775 5772 5769 5765 5762 5759 5755 5752 5749 5746
5780 5781 5785 5783 5783 5784 5784 5785 5786 5787 5788 5789 5790 5792 5793 5794 5794 5795 5795 5795 5795 5795 5795 5794 5793 5793 5791 5790 5788 5786 5783 5781 5778 5775 5771 5768 5765 5761 5758 5755 5751 5748 5745 5742
5775 5777 5777 5776 5776 5777 5778 5779 5780 5781 5782 5783 5784 5785 5786 5787 5788 5789 5789 5789 5789 5789 5789 5788 5788 5787 5786 5784 5783 5781 5778 5776 5773 5770 5767 5763 5760 5757 5754 5750 5747 5744 5741 5738
5766 5769 5769 5769 5769 5770 5770 5771 5772 5774 5775 5776 5777 5778 5779 5780 5781 5782 5782 5782 5783 5783 5782 5782 5782 5781 5780 5779 5777 5775 5773 5770 5767 5765 5762 5758 5755 5752 5749 5745 5742 5739 5736 5733
5756 5759 5759 5760 5761 5761 5762 5763 5764 5766 5767 5768 5769 5770 5771 5772 5773 5774 5775 5775 5775 5775 5775 5775 5775 5774 5773 5772 5770 5769 5766 5764 5761 5759 5756 5753 5750 5746 5743 5740 5737 5734 5731 5728
5746 5748 5748 5750 5751 5752 5753 5755 5756 5757 5758 5760 5761 5762 5763 5764 5765 5766 5766 5767 5767 5768 5768 5768 5767 5767 5766 5765 5764 5762 5760 5758 5755 5752 5749 5746 5743 5740 5737 5734 5731 5728 5725 5722
5733 5735 5736 5738 5741 5742 5742 5744 5746 5747 5749 5751 5752 5753 5754 5755 5756 5757 5758 5758 5759 5759 5760 5760 5760 5759 5758 5757 5756 5754 5753 5750 5748 5745 5742 5739 5736 5733 5730 5728 5725 5722 5719 5716
5719 5720 5722 5725 5727 5729 5730 5732 5734 5737 5739 5741 5742 5744 5745 5746 5747 5748 5749 5749 5750 5751 5751 5751 5751 5751 5750 5749 5748 5747 5745 5743 5740 5737 5734 5731 5728 5725 5722 5719 5717 5714 5711 5708
5704 5705 5707 5710 5713 5716 5718 5720 5722 5725 5727 5729 5731 5733 5734 5736 5737 5738 5739 5740 5741 5741 5742 5742 5742 5742 5741 5741 5739 5738 5736 5734 5732 5729 5726 5723 5720 5717 5714 5711 5708 5705 5702 5700
5689 5690 5691 5694 5698 5701 5704 5706 5709 5712 5715 5717 5719 5721 5723 5725 5726 5727 5729 5730 5731 5731 5732 5732 5733 5732 5732 5731 5730 5729 5727 5725 5722 5720 5717 5714 5711 5708 5705 5702 5699 5696 5693 5691
5672 5674 5676 5679 5682 5686 5689 5692 5695 5698 5701 5703 5706 5708 5710 5712 5714 5716 5718 5719 5720 5721 5722 5722 5722 5722 5722 5721 5720 5718 5717 5715 5713 5710 5707 5705 5702 5699 5696 5693 5690 5687 5684 5681
5654 5657 5660 5663 5666 5670 5673 5677 5680 5683 5686 5689 5691 5694 5697 5700 5702 5704 5705 5707 5708 5710 5710 5711 5711 5711 5711 5710 5709 5708 5706 5704 5702 5700 5697 5694 5691 5688 5685 5682 5679 5677 5674 5671
5638 5641 5644 5647 5650 5654 5657 5661 5664 5668 5671 5674 5677 5680 5683 5686 5688 5690 5692 5694 5696 5697 5698 5699 5699 5699 5699 5698 5697 5696 5695 5693 5691 5688 5686 5683 5680 5677 5674 5672 5669 5666 5663 5660
5622 5625 5628 5631 5634 5638 5641 5645 5649 5652 5656 5659 5663 5665 5668 5671 5674 5676 5679 5681 5682 5684 5685 5686 5686 5686 5686 5686 5685 5684 5682 5681 5679 5676 5674 5671 5668 5666 5663 5660 5657 5654 5651 5648
5607 5609 5612 5616 5619 5622 5626 5629 5633 5637 5640 5644 5648 5651 5654 5656 5659 5662 5664 5666 5668 5670 5671 5672 5673 5673 5673 5673 5672 5671 5670 5668 5666 5664 5661 5659 5656 5654 5651 5648 5645 5642 5639 5636
5592 5595 5598 5601 5604 5608 5611 5614 5618 5621 5625 5628 5632 5635 5638 5641 5644 5647 5650 5652 5654 5655 5657 5658 5659 5659 5659 5659 5658 5657 5656 5655 5653 5651 5649 5646 5644 5641 5639 5636 5633 5630 5627 5624
5579 5581 5584 5587 5590 5593 5596 5599 5602 5606 5609 5613 5616 5620 5623 5626 5629 5632 5635 5637 5639 5641 5643 5644 5645 5645 5645 5645 5645 5644 5643 5641 5640 5638 5636 5634 5631 5629 5626 5623 5620 5617 5614 5611
5566 5568 5570 5572 5575 5578 5581 5585 5588 5591 5594 5598 5601 5604 5608 5611 5614 5617 5620 5622 5625 5627 5628 5629 5630 5631 5631 5631 5631 5630 5629 5628 5626 5625 5623 5621 5618 5616 5613 5611 5608 5605 5602 5599
5553 5555 5557 5559 5561 5564 5567 5570 5573 5577 5580 5583 5586 5590 5593 5596 5599 5602 5605 5608 5610 5612 5613 5615 5616 5616 5617 5617 5617 5616 5615 5614 5613 5611 5610 5608 5606 5603 5601 5598 5595 5593 5589 5586
5539 5541 5544 5546 5548 5551 5553 5556 5559 5562 5566 5569 5572 5575 5579 5582 5585 5588 5590 5593 5595 5597 5599 5600 5601 5602 5603 5603 5603 5603 5602 5601 5600 5598 5597 5595 5593 5591 5588 5586 5583 5580 5577 5573
5527 5528 5531 5533 5535 5538 5540 5543 5546 5549 5552 5555 5558 5561 5565 5568 5571 5573 5576 5578 5581 5583 5584 5586 5587 5588 5589 5589 5589 5589 5588 5588 5587 5585 5584 5582 5580 5578 5576 5573 5571 5568 5565 5561